{"data":{"norad_id":55147,"epoch":"2026-09-20T03:13:22.472832Z","epoch_age_seconds":53484,"freshness":"FRESH","line1":"1 55147U 23004H   26263.13428788  .00000013  00000+0 -37535-6 0  9994","line2":"2 55147  87.9156 316.6006 0001572  97.9238 262.2073 13.18686404182212","mean_motion":13.18686404,"eccentricity":0.0001572,"inclination_deg":87.9156,"raan_deg":316.6006,"arg_perigee_deg":97.9238,"mean_anomaly_deg":262.2073,"bstar":-3.7535e-7,"rev_number":18221,"period_min":109.19957888638,"perigee_km":1188.5519106624,"apogee_km":1190.9312516883,"semimajor_km":7567.8785811754,"source":"CELESTRAK","updated_at":"2026-09-20T09:00:44.751430Z"}}